This is the latest recevied weather packets stored in our database for station/object KMASWX. If no packets are shown the sender has not sent any weather packets the latest 10 day(s).
| Time | Temp. | Humidity | Pressure | Rain* | Wind** | Luminosity | Snow |
|---|---|---|---|---|---|---|---|
| 1777976211 | 11.67° C | 53% | - | 0 mm | - | - | - |
| 1777975604 | 11.67° C | 54% | - | 0 mm | - | - | - |
| 1777975301 | 11.67° C | 53% | - | 0 mm | - | - | - |
| 1777974994 | 12.22° C | 50% | - | 0 mm | - | - | - |
| 1777974691 | 12.78° C | 50% | - | 0 mm | - | - | - |
| 1777974387 | 12.78° C | 50% | - | 0 mm | - | - | - |
| 1777973777 | 12.22° C | 52% | - | 0 mm | - | - | - |
| 1777973472 | 12.22° C | 52% | - | 0 mm | - | - | - |
| 1777972863 | 12.78° C | 50% | - | 0 mm | - | - | - |
| 1777972559 | 12.78° C | 50% | - | 0 mm | - | - | - |
| 1777972256 | 13.33° C | 50% | - | 0 mm | - | - | - |
| 1777971949 | 13.33° C | 50% | - | 0 mm | - | - | - |
| 1777971644 | 13.33° C | 50% | - | 0 mm | - | - | - |
| 1777971341 | 12.78° C | 51% | - | 0 mm | - | - | - |
| 1777970729 | 12.78° C | 51% | - | 0 mm | - | - | - |
| 1777970426 | 13.33° C | 49% | - | 0 mm | - | - | - |
| 1777970119 | 13.33° C | 49% | - | 0 mm | - | - | - |
| 1777969816 | 13.33° C | 50% | - | 0 mm | - | - | - |
| 1777969209 | 13.33° C | 48% | - | 0 mm | - | - | - |
| 1777968902 | 13.89° C | 47% | - | 0 mm | - | - | - |
| 1777968598 | 13.89° C | 47% | - | 0 mm | - | - | - |
| 1777968295 | 14.44° C | 47% | - | 0 mm | - | - | - |
| 1777967986 | 14.44° C | 46% | - | 0 mm | - | - | - |
| 1777967375 | 14.44° C | 46% | - | 0 mm | - | - | - |
| 1777967068 | 15° C | 45% | - | 0 mm | - | - | - |
* Rain latest 24 hours (hover to see other rain measurements)
** Current wind speed in m/s (hover to see current wind gust speed)